Time,TemperatureF,DewpointF,PressureIn,WindDirection,WindDirectionDegrees,WindSpeedMPH,WindSpeedGustMPH,Humidity,HourlyPrecipIn,Conditions,Clouds,dailyrainin,SoftwareType,DateUTC
2013-10-17 00:00:00,59.0,59.0,29.95,West,263,3.0,4.0,100,0.00,,,-99.99,,2013-10-17 04:00:00,
2013-10-17 00:43:00,59.0,59.0,29.95,West,263,3.0,4.0,100,0.00,,,-99.99,,2013-10-17 04:43:00,
2013-10-17 00:54:00,59.0,59.0,29.95,West,263,3.0,4.0,100,0.00,,,-99.99,,2013-10-17 04:54:00,
2013-10-17 01:00:00,59.0,58.0,29.93,West,266,0.0,4.0,99,0.00,,,-99.99,,2013-10-17 05:00:00,
2013-10-17 01:42:00,59.0,58.0,29.93,West,266,0.0,4.0,99,0.00,,,-99.99,,2013-10-17 05:42:00,
2013-10-17 01:52:00,59.0,58.0,29.93,West,266,0.0,4.0,99,0.00,,,-99.99,,2013-10-17 05:52:00,
2013-10-17 02:00:00,59.0,59.0,29.93,WSW,239,0.0,3.0,100,0.00,,,-99.99,,2013-10-17 06:00:00,
2013-10-17 02:42:00,59.0,59.0,29.93,WSW,239,0.0,3.0,100,0.00,,,-99.99,,2013-10-17 06:42:00,
2013-10-17 02:52:00,59.0,59.0,29.93,WSW,239,0.0,3.0,100,0.00,,,-99.99,,2013-10-17 06:52:00,
2013-10-17 05:00:00,60.0,60.0,29.90,SW,227,2.0,8.0,100,0.00,,,-99.99,,2013-10-17 09:00:00,
2013-10-17 05:43:00,60.0,60.0,29.90,SW,227,2.0,8.0,100,0.00,,,-99.99,,2013-10-17 09:43:00,
2013-10-17 05:53:00,60.0,60.0,29.90,SW,227,2.0,8.0,100,0.00,,,-99.99,,2013-10-17 09:53:00,
2013-10-17 09:00:00,62.0,61.0,29.92,West,262,3.0,6.0,98,0.00,,,-99.99,,2013-10-17 13:00:00,
2013-10-17 09:42:00,62.0,61.0,29.92,West,262,3.0,6.0,98,0.00,,,-99.99,,2013-10-17 13:42:00,
2013-10-17 09:52:00,62.0,61.0,29.92,West,262,3.0,6.0,98,0.00,,,-99.99,,2013-10-17 13:52:00,
2013-10-17 10:00:00,64.0,62.0,29.93,West,276,0.0,6.0,93,0.00,,,-99.99,,2013-10-17 14:00:00,
2013-10-17 10:42:00,64.0,62.0,29.93,West,276,0.0,6.0,93,0.00,,,-99.99,,2013-10-17 14:42:00,
2013-10-17 10:52:00,64.0,62.0,29.93,West,276,0.0,6.0,93,0.00,,,-99.99,,2013-10-17 14:52:00,
2013-10-17 11:00:00,66.0,61.0,29.91,SE,134,0.0,7.0,83,0.00,,,-99.99,,2013-10-17 15:00:00,
2013-10-17 11:43:00,66.0,61.0,29.91,SE,134,0.0,7.0,83,0.00,,,-99.99,,2013-10-17 15:43:00,
2013-10-17 11:54:00,66.0,61.0,29.91,SE,134,0.0,7.0,83,0.00,,,-99.99,,2013-10-17 15:54:00,
2013-10-17 12:00:00,70.0,58.0,29.88,North,0,3.0,5.0,67,0.00,,,-99.99,,2013-10-17 16:00:00,
2013-10-17 12:42:00,70.0,58.0,29.88,North,0,3.0,5.0,67,0.00,,,-99.99,,2013-10-17 16:42:00,
2013-10-17 12:54:00,70.0,58.0,29.88,North,0,3.0,5.0,67,0.00,,,-99.99,,2013-10-17 16:54:00,
2013-10-17 13:00:00,73.0,57.0,29.85,WSW,238,3.0,11.0,57,0.00,,,-99.99,,2013-10-17 17:00:00,
2013-10-17 13:42:00,73.0,57.0,29.85,WSW,238,3.0,11.0,57,0.00,,,-99.99,,2013-10-17 17:42:00,
2013-10-17 13:53:00,73.0,57.0,29.85,WSW,238,3.0,11.0,57,0.00,,,-99.99,,2013-10-17 17:53:00,
2013-10-17 14:00:00,74.0,57.0,29.82,South,179,9.0,12.0,54,0.00,,,-99.99,,2013-10-17 18:00:00,
2013-10-17 14:42:00,74.0,57.0,29.82,South,179,9.0,12.0,54,0.00,,,-99.99,,2013-10-17 18:42:00,
2013-10-17 14:52:00,74.0,57.0,29.82,South,179,9.0,12.0,54,0.00,,,-99.99,,2013-10-17 18:52:00,
2013-10-17 15:00:00,71.0,57.0,29.81,WSW,249,3.0,11.0,60,0.00,,,-99.99,,2013-10-17 19:00:00,
2013-10-17 15:42:00,71.0,57.0,29.81,WSW,249,3.0,11.0,60,0.00,,,-99.99,,2013-10-17 19:42:00,
2013-10-17 15:53:00,71.0,57.0,29.81,WSW,249,3.0,11.0,60,0.00,,,-99.99,,2013-10-17 19:53:00,
2013-10-17 16:00:00,72.0,58.0,29.80,South,188,8.0,12.0,61,0.00,,,-99.99,,2013-10-17 20:00:00,
2013-10-17 16:42:00,72.0,58.0,29.80,South,188,8.0,12.0,61,0.00,,,-99.99,,2013-10-17 20:42:00,
2013-10-17 16:52:00,72.0,58.0,29.80,South,188,8.0,12.0,61,0.00,,,-99.99,,2013-10-17 20:52:00,
2013-10-17 17:00:00,69.0,60.0,29.79,SW,216,3.0,12.0,72,0.00,,,-99.99,,2013-10-17 21:00:00,
2013-10-17 17:44:00,69.0,60.0,29.79,SW,216,3.0,12.0,72,0.00,,,-99.99,,2013-10-17 21:44:00,
2013-10-17 17:54:00,69.0,60.0,29.79,SW,216,3.0,12.0,72,0.00,,,-99.99,,2013-10-17 21:54:00,
2013-10-17 18:00:00,68.0,60.0,29.78,WSW,238,4.0,13.0,76,0.00,,,-99.99,,2013-10-17 22:00:00,
2013-10-17 18:43:00,68.0,60.0,29.78,WSW,238,4.0,13.0,76,0.00,,,-99.99,,2013-10-17 22:43:00,
2013-10-17 18:53:00,68.0,60.0,29.78,WSW,238,4.0,13.0,76,0.00,,,-99.99,,2013-10-17 22:53:00,
2013-10-17 20:00:00,65.0,62.0,29.75,SSE,167,2.0,8.0,92,0.00,,,-99.99,,2013-10-18 00:00:00,
2013-10-17 20:42:00,65.0,62.0,29.75,SSE,167,2.0,8.0,92,0.00,,,-99.99,,2013-10-18 00:42:00,
2013-10-17 20:53:00,65.0,62.0,29.75,SSE,167,2.0,8.0,92,0.00,,,-99.99,,2013-10-18 00:53:00,
2013-10-17 21:00:00,65.0,63.0,29.75,SW,236,2.0,9.0,93,0.00,,,-99.99,,2013-10-18 01:00:00,
2013-10-17 21:42:00,65.0,63.0,29.75,SW,236,2.0,9.0,93,0.00,,,-99.99,,2013-10-18 01:42:00,
2013-10-17 21:53:00,65.0,63.0,29.75,SW,236,2.0,9.0,93,0.00,,,-99.99,,2013-10-18 01:53:00,
2013-10-17 22:00:00,65.0,64.0,29.73,SSW,209,3.0,15.0,96,0.00,,,-99.99,,2013-10-18 02:00:00,
2013-10-17 22:42:00,65.0,64.0,29.73,SSW,209,3.0,15.0,96,0.00,,,-99.99,,2013-10-18 02:42:00,
2013-10-17 22:52:00,65.0,64.0,29.73,SSW,209,3.0,15.0,96,0.00,,,-99.99,,2013-10-18 02:52:00,
2013-10-17 23:00:00,65.0,63.0,29.71,SSW,211,4.0,15.0,94,0.00,,,-99.99,,2013-10-18 03:00:00,
2013-10-17 23:44:00,65.0,63.0,29.71,SSW,211,4.0,15.0,94,0.00,,,-99.99,,2013-10-18 03:44:00,
2013-10-17 23:55:00,65.0,63.0,29.71,SSW,211,4.0,15.0,94,0.00,,,-99.99,,2013-10-18 03:55:00,